EW0750 Weather Reports


time (UTC)temp
F
wind
direction
speed
knots
gust
knots
rain 1hr
in
rain 24hr
in
rain mn
in
humidity
%
barometer
mb
20260507235026 67 144 0.0 2.6 0.00 0.00 0.00 76 1013.9
20260507234524 67 144 0.0 1.7 0.00 0.00 0.00 77 1013.9
20260507234023 67 144 0.0 0.9 0.00 0.00 0.00 76 1013.9
20260507233521 67 144 0.0 1.7 0.00 0.00 0.00 76 1014.0
20260507233019 67 144 0.0 3.5 0.00 0.00 0.00 75 1014.0
20260507232517 68 144 0.0 1.7 0.00 0.00 0.00 75 1014.0
20260507232117 68 144 0.0 2.6 0.00 0.00 0.00 75 1013.9
20260507231513 68 144 0.0 3.5 0.00 0.00 0.00 75 1014.0
20260507231011 68 144 0.0 2.6 0.00 0.00 0.00 74 1014.0
20260507230509 68 144 0.0 2.6 0.00 0.00 0.00 74 1014.0
20260507230008 68 144 0.0 2.6 0.00 0.00 0.00 74 1014.1
20260507225504 68 144 0.0 2.6 0.00 0.00 0.00 74 1014.1
20260507225003 68 144 0.0 2.6 0.00 0.00 0.00 74 1014.1
20260507224058 69 144 0.0 2.6 0.00 0.00 0.00 74 1014.2
20260507223559 69 144 0.0 1.7 0.00 0.00 0.00 74 1014.2
20260507223055 69 144 0.0 3.5 0.00 0.00 0.00 73 1014.2
20260507222553 69 144 0.0 2.6 0.00 0.00 0.00 73 1014.3
20260507222050 69 144 0.0 2.6 0.00 0.00 0.00 73 1014.2
20260507221548 69 144 0.0 4.3 0.00 0.00 0.00 73 1014.4
20260507221049 69 144 0.0 4.3 0.00 0.00 0.00 72 1014.4
20260507220644 70 144 0.0 4.3 0.00 0.00 0.00 71 1014.4
20260507220042 70 144 0.0 4.3 0.00 0.00 0.00 71 1014.4
20260507215540 70 144 0.0 4.3 0.00 0.00 0.00 71 1014.4
20260507215038 70 144 0.0 3.5 0.00 0.00 0.00 71 1014.5
20260507214540 70 144 0.0 0.9 0.00 0.00 0.00 71 1014.5
20260507214034 71 144 0.0 4.3 0.00 0.00 0.00 70 1014.8
20260507213536 71 144 0.0 4.3 0.00 0.00 0.00 70 1014.8
20260507213031 71 144 0.0 3.5 0.00 0.00 0.00 70 1014.9
20260507212528 71 144 0.0 6.1 0.00 0.00 0.00 70 1014.8
20260507212026 71 144 0.0 6.1 0.00 0.00 0.00 69 1014.8
20260507211535 71 144 0.0 3.5 0.00 0.00 0.00 69 1014.8
20260507211021 72 144 0.0 3.5 0.00 0.00 0.00 68 1014.9
20260507210520 72 144 0.0 5.2 0.00 0.00 0.00 68 1014.9
20260507210018 72 144 0.0 5.2 0.00 0.00 0.00 68 1014.9
20260507205515 72 144 0.0 7.0 0.00 0.00 0.00 67 1014.9
20260507205013 73 144 0.0 2.6 0.00 0.00 0.00 66 1015.0
20260507204513 73 144 0.0 7.0 0.00 0.00 0.00 65 1015.0
20260507204011 73 144 0.0 7.0 0.00 0.00 0.00 66 1015.0
20260507203609 74 144 0.0 4.3 0.00 0.00 0.00 66 1015.0
20260507203007 74 144 0.0 6.1 0.00 0.00 0.00 64 1015.0
20260507202504 74 144 0.9 6.1 0.00 0.00 0.00 64 1015.0
20260507202002 75 144 0.0 3.5 0.00 0.00 0.00 64 1015.0
20260507201601 75 144 0.0 4.3 0.00 0.00 0.00 64 1015.1
20260507201100 75 144 0.0 4.3 0.00 0.00 0.00 64 1015.0
20260507200556 75 144 0.0 3.5 0.00 0.00 0.00 65 1015.0
20260507200053 75 144 0.0 3.5 0.00 0.00 0.00 64 1015.0
20260507195552 75 144 0.0 5.2 0.00 0.00 0.00 65 1015.1
20260507195048 75 144 0.0 5.2 0.00 0.00 0.00 64 1015.1
20260507194548 74 144 0.0 5.2 0.00 0.00 0.00 66 1015.1
20260507194045 74 144 0.0 3.5 0.00 0.00 0.00 65 1015.2
20260507193543 74 144 0.0 3.5 0.00 0.00 0.00 68 1015.2
20260507193139 73 144 0.0 5.2 0.00 0.00 0.00 67 1015.2
20260507192533 73 144 0.0 3.5 0.00 0.00 0.00 67 1015.3
20260507192031 73 144 0.0 4.3 0.00 0.00 0.00 68 1015.4
20260507191529 72 144 0.0 3.5 0.00 0.00 0.00 68 1015.4
20260507191025 72 144 0.0 3.5 0.00 0.00 0.00 69 1015.5
20260507190523 72 144 0.0 4.3 0.00 0.00 0.00 70 1015.6
20260507190121 71 144 0.0 4.3 0.00 0.00 0.00 71 1015.6
20260507185517 71 144 0.0 4.3 0.00 0.00 0.00 73 1015.6
20260507185014 70 144 0.0 5.2 0.00 0.00 0.00 75 1015.7
20260507184514 69 144 0.0 3.5 0.00 0.00 0.00 75 1015.8
20260507184007 69 144 0.0 2.6 0.00 0.00 0.00 76 1015.7
20260507183508 68 144 0.0 4.3 0.00 0.00 0.00 78 1015.8
20260507183001 67 144 0.0 4.3 0.00 0.00 0.00 79 1015.7
20260507182559 67 144 0.0 1.7 0.00 0.00 0.00 80 1015.8
20260507182056 66 144 0.0 2.6 0.00 0.00 0.00 81 1015.7
20260507181553 66 144 0.0 5.2 0.00 0.00 0.00 81 1015.7
20260507181051 66 144 0.0 1.7 0.00 0.00 0.00 82 1015.7
20260507180651 65 144 0.0 1.7 0.00 0.00 0.00 82 1015.8
20260507180145 65 144 0.0 2.6 0.00 0.00 0.00 82 1015.8
20260507175543 65 144 0.0 1.7 0.00 0.00 0.00 83 1015.8
20260507175040 64 144 0.0 1.7 0.00 0.00 0.00 83 1015.8
20260507174536 64 144 0.0 0.9 0.00 0.00 0.00 84 1015.9
20260507174033 64 144 0.0 0.9 0.00 0.00 0.00 84 1016.0
20260507173530 64 144 0.0 2.6 0.00 0.00 0.00 85 1016.0
20260507173027 64 144 0.0 1.7 0.00 0.00 0.00 86 1016.0
20260507172525 63 144 0.0 2.6 0.00 0.00 0.00 86 1016.0
20260507172020 63 144 0.0 2.6 0.00 0.00 0.00 87 1016.1
20260507171517 63 144 0.0 1.7 0.00 0.00 0.00 88 1016.2
20260507171015 63 144 0.0 1.7 0.00 0.00 0.00 88 1016.2
20260507170516 62 144 0.0 1.7 0.00 0.00 0.00 89 1016.2
20260507170110 62 144 0.0 0.9 0.00 0.00 0.00 89 1016.1
20260507165506 62 144 0.0 0.9 0.00 0.00 0.00 90 1016.2
20260507165004 62 144 0.0 2.6 0.00 0.00 0.00 90 1016.2
20260507164502 61 144 0.0 2.6 0.00 0.00 0.00 91 1016.2
20260507164101 61 144 0.0 0.9 0.00 0.00 0.00 91 1016.2
20260507163557 61 144 0.0 0.0 0.00 0.00 0.00 91 1016.3
20260507163059 61 144 0.0 0.9 0.00 0.00 0.00 92 1016.3
20260507162552 60 144 0.0 0.0 0.00 0.00 0.00 92 1016.2
20260507162054 60 144 0.0 0.0 0.00 0.00 0.00 92 1016.2
20260507161547 60 144 0.0 0.0 0.00 0.00 0.00 92 1016.2
20260507161045 60 144 0.0 0.0 0.00 0.00 0.00 92 1016.2
20260507160543 60 144 0.0 0.0 0.00 0.00 0.00 92 1016.3
20260507160047 59 144 0.0 0.0 0.00 0.00 0.00 93 1016.3
20260507155640 59 144 0.0 0.0 0.00 0.00 0.00 93 1016.3
20260507155037 59 144 0.0 0.0 0.00 0.00 0.00 93 1016.4
20260507154536 59 144 0.0 0.0 0.00 0.00 0.00 93 1016.5
20260507154033 59 144 0.0 0.0 0.00 0.00 0.00 93 1016.5
20260507153530 58 144 0.0 0.0 0.00 0.00 0.00 93 1016.6
20260507153031 58 144 0.0 0.0 0.00 0.00 0.00 93 1016.6
20260507152527 58 144 0.0 0.0 0.00 0.00 0.00 93 1016.5
20260507152025 58 144 0.0 0.0 0.00 0.00 0.00 92 1016.6
20260507151523 57 144 0.0 0.0 0.00 0.00 0.00 92 1016.6
20260507151121 57 144 0.0 0.0 0.00 0.00 0.00 92 1016.6
20260507150518 57 144 0.0 0.0 0.00 0.00 0.00 92 1016.6
20260507150020 57 144 0.0 0.0 0.00 0.00 0.00 91 1016.5
20260507145614 56 144 0.0 0.0 0.00 0.00 0.00 91 1016.5
20260507145012 56 144 0.0 0.0 0.00 0.00 0.00 91 1016.5
20260507144512 56 144 0.0 0.0 0.00 0.00 0.00 90 1016.4
20260507144008 56 144 0.0 0.0 0.00 0.00 0.00 90 1016.4
20260507143506 56 144 0.0 0.0 0.00 0.00 0.00 89 1016.3
20260507143006 55 144 0.0 0.0 0.00 0.00 0.00 89 1016.2
20260507142504 55 144 0.0 0.0 0.00 0.00 0.00 89 1016.2
20260507142059 55 144 0.0 0.0 0.00 0.00 0.00 89 1016.2
20260507141600 55 144 0.0 0.0 0.00 0.00 0.00 89 1016.2
20260507141055 55 144 0.0 0.0 0.00 0.00 0.00 89 1016.1
20260507140554 55 144 0.0 0.0 0.00 0.00 0.00 89 1016.2
20260507140155 55 144 0.0 0.0 0.00 0.00 0.00 89 1016.1
20260507135549 55 144 0.0 0.0 0.00 0.00 0.00 89 1016.1
20260507135046 55 144 0.0 0.0 0.00 0.00 0.00 88 1016.1
20260507134648 55 144 0.0 0.0 0.00 0.00 0.00 88 1016.0
20260507134142 55 144 0.0 0.0 0.00 0.00 0.00 88 1015.9
20260507133540 55 144 0.0 0.0 0.00 0.00 0.00 88 1015.7
20260507133039 55 144 0.0 0.0 0.00 0.00 0.00 88 1015.7
20260507132536 55 144 0.0 0.0 0.00 0.00 0.00 88 1015.7
20260507132035 55 144 0.0 0.0 0.00 0.00 0.00 87 1015.7
20260507131536 55 144 0.0 0.0 0.00 0.00 0.00 87 1015.7
20260507131135 55 144 0.0 0.0 0.00 0.00 0.00 87 1015.7
20260507130534 55 144 0.0 0.0 0.00 0.00 0.00 87 1015.7
20260507130031 55 144 0.0 0.0 0.00 0.00 0.00 87 1015.6
20260507125529 55 144 0.0 0.0 0.00 0.00 0.00 87 1015.6
20260507125027 55 144 0.0 0.0 0.00 0.00 0.00 87 1015.6
20260507124542 55 144 0.0 0.0 0.00 0.00 0.00 87 1015.6
20260507124023 55 144 0.0 0.0 0.00 0.00 0.00 87 1015.6
20260507123520 55 144 0.0 0.0 0.00 0.00 0.00 87 1015.6
20260507123018 55 144 0.0 0.0 0.00 0.00 0.00 86 1015.5
20260507122516 55 144 0.0 0.0 0.00 0.00 0.00 86 1015.5
20260507122013 55 144 0.0 0.0 0.00 0.00 0.00 86 1015.5
20260507121512 55 144 0.0 0.0 0.00 0.00 0.00 86 1015.5
20260507121110 55 144 0.0 0.0 0.00 0.00 0.00 86 1015.5
20260507120513 55 144 0.0 0.0 0.00 0.00 0.00 86 1015.5
20260507120006 55 144 0.0 0.0 0.00 0.00 0.00 86 1015.5
20260507115505 55 144 0.0 0.0 0.00 0.00 0.00 86 1015.5
20260507115002 55 144 0.0 0.0 0.00 0.00 0.00 86 1015.5
20260507114501 55 144 0.0 0.0 0.00 0.00 0.00 86 1015.5
20260507114059 55 144 0.0 0.0 0.00 0.00 0.00 86 1015.6
20260507113558 55 144 0.0 0.0 0.00 0.00 0.00 85 1015.5
20260507113057 55 144 0.0 0.0 0.00 0.00 0.00 85 1015.5
20260507112554 56 144 0.0 0.0 0.00 0.00 0.00 85 1015.6
20260507112052 56 144 0.0 0.0 0.00 0.00 0.00 85 1015.7
20260507111648 56 144 0.0 0.0 0.00 0.00 0.00 85 1015.7
20260507111045 56 144 0.0 0.0 0.00 0.00 0.00 86 1015.7
20260507110543 56 144 0.0 0.0 0.00 0.00 0.00 86 1015.8
20260507110045 56 144 0.0 0.0 0.00 0.00 0.00 86 1015.8
20260507105539 56 144 0.0 0.0 0.00 0.00 0.00 86 1015.9
20260507105037 56 144 0.0 0.0 0.00 0.00 0.00 86 1015.8
20260507104545 56 144 0.0 0.0 0.00 0.00 0.00 85 1015.8
20260507104136 56 144 0.0 0.0 0.00 0.00 0.00 85 1015.8
20260507103532 56 144 0.0 0.0 0.00 0.00 0.00 85 1015.9
20260507103030 56 144 0.0 0.0 0.00 0.00 0.00 85 1015.9
20260507102528 56 144 0.0 0.0 0.00 0.00 0.00 85 1016.0
20260507102025 56 144 0.0 0.0 0.00 0.00 0.00 85 1016.0
20260507101526 56 144 0.0 0.0 0.00 0.00 0.00 85 1015.9
20260507101021 56 144 0.0 0.0 0.00 0.00 0.00 85 1016.0
20260507100619 56 144 0.0 0.0 0.00 0.00 0.00 85 1015.9
20260507100023 56 144 0.0 0.0 0.00 0.00 0.00 85 1016.0
20260507095515 56 144 0.0 0.0 0.00 0.00 0.00 85 1016.0
20260507095014 56 144 0.0 0.0 0.00 0.00 0.00 85 1016.1
20260507094511 56 144 0.0 0.0 0.00 0.00 0.00 85 1016.0
20260507094009 56 144 0.0 0.0 0.00 0.00 0.00 85 1016.1
20260507093511 56 144 0.0 0.0 0.00 0.00 0.00 85 1016.1
20260507093005 56 144 0.0 0.0 0.00 0.00 0.00 84 1016.1
20260507092504 57 144 0.0 0.0 0.00 0.00 0.00 84 1016.2
20260507092100 57 144 0.0 0.0 0.00 0.00 0.00 84 1016.2
20260507091558 57 144 0.0 0.0 0.00 0.00 0.00 84 1016.3
20260507091056 57 144 0.0 0.0 0.00 0.00 0.00 84 1016.5
20260507090554 57 144 0.0 0.0 0.00 0.00 0.00 84 1016.4
20260507090051 57 144 0.0 0.0 0.00 0.00 0.00 83 1016.4
20260507085549 57 144 0.0 0.0 0.00 0.00 0.00 83 1016.5
20260507085047 57 144 0.0 0.0 0.00 0.00 0.00 83 1016.6
20260507084544 57 144 0.0 0.0 0.00 0.00 0.00 83 1016.7
20260507084042 57 144 0.0 0.0 0.00 0.00 0.00 83 1016.6
20260507083542 57 144 0.0 0.0 0.00 0.00 0.00 82 1016.8
20260507082534 57 144 0.0 0.0 0.00 0.00 0.00 82 1016.9
20260507082032 57 144 0.0 0.0 0.00 0.00 0.00 82 1016.9
20260507081530 57 144 0.0 0.0 0.00 0.00 0.00 82 1017.0
20260507081028 58 144 0.0 0.0 0.00 0.00 0.00 82 1017.0
20260507080630 58 144 0.0 0.0 0.00 0.00 0.00 82 1017.0
20260507080025 58 144 0.0 0.0 0.00 0.00 0.00 81 1017.0
20260507075522 58 144 0.0 0.0 0.00 0.00 0.00 81 1017.0
20260507075018 58 144 0.0 0.0 0.00 0.00 0.00 81 1016.9
20260507074516 58 144 0.0 0.0 0.00 0.00 0.00 81 1016.9
20260507074014 58 144 0.0 0.0 0.00 0.00 0.00 81 1016.8
20260507073613 58 144 0.0 0.0 0.00 0.00 0.00 81 1016.7
20260507073110 58 144 0.0 0.0 0.00 0.00 0.00 81 1016.8
20260507072508 58 144 0.0 0.0 0.00 0.00 0.00 81 1016.8
20260507072006 58 144 0.0 0.0 0.00 0.00 0.00 81 1016.9
20260507071604 58 144 0.0 0.0 0.00 0.00 0.00 80 1016.9
20260507071003 59 144 0.0 0.0 0.00 0.00 0.00 80 1016.9
20260507070559 59 144 0.0 0.0 0.00 0.00 0.00 80 1016.9
20260507070114 59 144 0.0 0.0 0.00 0.00 0.00 80 1017.0
20260507065654 59 144 0.0 0.0 0.00 0.00 0.00 80 1017.0
20260507065053 59 144 0.0 0.0 0.00 0.00 0.00 80 1017.0
20260507064550 59 144 0.0 0.0 0.00 0.00 0.00 79 1017.0
20260507064048 59 144 0.0 0.0 0.00 0.00 0.00 79 1017.1
20260507063546 59 144 0.0 0.0 0.00 0.00 0.00 79 1017.1
20260507063054 59 144 0.0 0.0 0.00 0.00 0.00 78 1017.1
20260507062541 59 144 0.0 0.0 0.00 0.00 0.00 78 1017.1
20260507062039 60 144 0.0 0.0 0.00 0.00 0.00 78 1017.0
20260507061536 60 144 0.0 0.0 0.00 0.00 0.00 78 1017.1
20260507061035 60 144 0.0 0.0 0.00 0.00 0.00 78 1017.2
20260507060532 60 144 0.0 0.0 0.00 0.00 0.00 77 1017.2
20260507060041 60 144 0.0 0.0 0.00 0.00 0.00 77 1017.2
20260507055528 60 144 0.0 0.0 0.00 0.00 0.00 77 1017.2
20260507055127 60 144 0.0 0.0 0.00 0.00 0.00 77 1017.2
20260507054524 60 144 0.0 0.0 0.00 0.00 0.00 77 1017.1
20260507054024 60 144 0.0 0.0 0.00 0.00 0.00 77 1017.1
20260507053521 60 144 0.0 0.0 0.00 0.00 0.00 76 1017.0
20260507053020 60 144 0.0 0.0 0.00 0.00 0.00 76 1017.1
20260507052516 60 144 0.0 0.0 0.00 0.00 0.00 76 1017.0
20260507052118 60 144 0.0 0.0 0.00 0.00 0.00 75 1017.0
20260507051513 61 144 0.0 0.0 0.00 0.00 0.00 75 1017.0
20260507051109 61 144 0.0 0.0 0.00 0.00 0.00 75 1017.0
20260507050507 61 144 0.0 0.0 0.00 0.00 0.00 75 1017.0
20260507050006 61 144 0.0 0.0 0.00 0.00 0.00 74 1016.9
20260507045505 61 144 0.0 0.0 0.00 0.00 0.00 74 1016.9
20260507045103 61 144 0.0 0.0 0.00 0.00 0.00 74 1016.9
20260507044501 61 144 0.0 0.0 0.00 0.00 0.00 74 1017.0
20260507044200 61 144 0.0 0.0 0.00 0.00 0.00 74 1017.0
20260507043558 61 144 0.0 0.0 0.00 0.00 0.00 73 1016.9
20260507043056 62 144 0.0 0.0 0.00 0.00 0.00 73 1016.9
20260507042554 62 144 0.0 0.0 0.00 0.00 0.00 73 1016.9
20260507042056 62 144 0.0 0.0 0.00 0.00 0.00 73 1016.9
20260507041551 62 144 0.0 0.0 0.00 0.00 0.00 72 1016.9
20260507041049 62 144 0.0 0.0 0.00 0.00 0.00 72 1016.9
20260507040548 63 144 0.0 0.0 0.00 0.00 0.00 72 1016.9
20260507040046 63 144 0.0 0.0 0.00 0.00 0.00 71 1016.8
20260507035544 63 144 0.0 0.0 0.00 0.00 0.00 71 1016.8
20260507035143 63 144 0.0 0.0 0.00 0.00 0.00 71 1016.7
20260507034542 63 144 0.0 0.0 0.00 0.00 0.00 71 1016.6
20260507034039 64 144 0.0 0.0 0.00 0.00 0.00 71 1016.6
20260507033538 64 144 0.0 0.0 0.00 0.00 0.00 71 1016.6
20260507033039 64 144 0.0 0.0 0.00 0.00 0.00 70 1016.6
20260507032539 64 144 0.0 0.0 0.00 0.00 0.00 70 1016.5
20260507032033 64 144 0.0 0.0 0.00 0.00 0.00 70 1016.5
20260507031533 64 144 0.0 0.0 0.00 0.00 0.00 70 1016.5
20260507031029 65 144 0.0 0.0 0.00 0.00 0.00 70 1016.3
20260507030528 65 144 0.0 0.0 0.00 0.00 0.00 69 1016.3
20260507030025 65 144 0.0 0.0 0.00 0.00 0.00 69 1016.2
20260507025523 65 144 0.0 0.0 0.00 0.00 0.00 69 1016.2
20260507025021 65 144 0.0 0.0 0.00 0.00 0.00 69 1016.2
20260507024523 65 144 0.0 0.0 0.00 0.00 0.00 69 1016.1
20260507024019 65 144 0.0 0.0 0.00 0.00 0.00 68 1016.0
20260507023516 66 144 0.0 0.0 0.00 0.00 0.00 68 1015.9
20260507023021 66 144 0.0 0.0 0.00 0.00 0.00 68 1016.0
20260507022512 66 144 0.0 0.0 0.00 0.00 0.00 69 1015.9
20260507022013 66 144 0.0 0.0 0.00 0.00 0.00 68 1015.9
20260507021508 66 144 0.0 0.0 0.00 0.00 0.00 67 1015.8
20260507021007 66 144 0.0 0.0 0.00 0.00 0.00 67 1015.8
20260507020506 67 144 0.0 0.0 0.00 0.00 0.00 66 1015.8
20260507020010 67 144 0.0 0.0 0.00 0.00 0.00 66 1015.7
20260507015502 67 144 0.0 0.0 0.00 0.00 0.00 66 1015.7
20260507015001 67 144 0.0 0.9 0.00 0.00 0.00 66 1015.7
20260507014603 67 144 0.0 0.9 0.00 0.00 0.00 66 1015.7
20260507014058 68 144 0.0 0.9 0.00 0.00 0.00 66 1015.6
20260507013655 68 144 0.0 2.6 0.00 0.00 0.00 66 1015.7
20260507013111 68 144 0.0 2.6 0.00 0.00 0.00 66 1015.6
20260507012553 68 144 0.0 0.9 0.00 0.00 0.00 66 1015.5
20260507012051 68 144 0.0 0.9 0.00 0.00 0.00 66 1015.6
20260507011650 68 144 0.0 3.5 0.00 0.00 0.00 67 1015.6
20260507011045 69 144 0.0 3.5 0.00 0.00 0.00 66 1015.5
20260507010544 69 144 0.0 1.7 0.00 0.00 0.00 66 1015.5
20260507010053 69 144 0.0 1.7 0.00 0.00 0.00 66 1015.5
20260507005541 69 144 0.0 0.9 0.00 0.00 0.00 65 1015.5
20260507005039 69 144 0.0 2.6 0.00 0.00 0.00 65 1015.5
20260507004538 69 144 0.0 3.5 0.00 0.00 0.00 66 1015.5
20260507004138 70 144 0.0 3.5 0.00 0.00 0.00 66 1015.4
20260507003540 70 144 0.0 5.2 0.00 0.00 0.00 65 1015.5
20260507003033 70 144 0.0 2.6 0.00 0.00 0.00 64 1015.4
20260507002531 70 144 0.0 0.9 0.00 0.00 0.00 64 1015.4
20260507002029 70 144 0.0 1.7 0.00 0.00 0.00 62 1015.4
20260507001630 70 144 0.0 2.6 0.00 0.00 0.00 62 1015.4
20260507001027 70 144 0.0 2.6 0.00 0.00 0.00 62 1015.3
20260507000525 70 144 0.0 3.5 0.00 0.00 0.00 61 1015.3
20260507000023 70 144 0.0 3.5 0.00 0.00 0.00 61 1015.3
20260506235521 70 144 0.0 0.9 0.00 0.00 0.00 61 1015.3